Powrót do katalogu

CZ-6A DEB

AktywnyPO
NORAD 60754·DEBRIS·🇨🇳 China

Wystrzelony Aug 6, 2024 z Taiyuan Satellite Launch Center

Loading…

Następne Przeloty (najbliższe 24 godziny)

TLE

ŚwieżeSource: Space-Track

Epoka: Sep 14, 2026, 11:13 UTC

1 60754U 24140ED  26257.46743545  .00001291  00000-0  58657-3 0  9990
2 60754  88.9634 261.7180 0052575 267.0704  92.4469 14.20570789107057

Śledź CZ-6A DEB w czasie rzeczywistym z AllMySat

Download on the App Store